Back to catalog

FENGYUN 1C DEB

AliveSSO
NORAD 31328·DEBRIS·🇨🇳 China

Launched May 10, 1999 from Taiyuan Satellite Launch Center

Loading…

Next Passes (next 24 hours)

TLE

FreshSource: Space-Track

Epoch: Sep 14, 2026, 09:05 UTC

1 31328U 99025BQG 26257.37905232  .00000079  00000-0  45194-4 0  9998
2 31328  98.5179 229.3567 0105117 125.6111 235.4919 14.29060221 13682

Track FENGYUN 1C DEB in real time with AllMySat

Download on the App Store